Regional Weather Roundup
Issued by NWS

Home | Current Version | Previous Version | Graphics & Text | Print | Product List | Glossary On
Versions: 1 2 3 4 5 6 7 8 9 10 11 12 13 14 15 16 17 18 19 20 21 22 23 24 25 26 27 28 29 30 31 32 33 34 35 36 37 38 39 40 41 42 43 44 45 46 47 48 49 50
000
ASUS43 KLMK 231710
RWRKY
KENTUCKY REGIONAL WEATHER ROUNDUP
NATIONAL WEATHER SERVICE LOUISVILLE KY
100 PM EDT TUE AUG 23 2016

NOTE "FAIR" INDICATES FEW OR NO CLOUDS BELOW 12,000 FEET
WITH NO SIGNIFICANT WEATHER AND/OR OBSTRUCTIONS TO VISIBILITY.

KYZ001>023-026-027-061>063-070>075-231800-
WESTERN AND SOUTH CENTRAL KENTUCKY

CITY           SKY/WX    TMP DP  RH WIND       PRES   REMARKS
PADUCAH        CLOUDY    78  67  68 E6        30.22F
HENDERSON      CLOUDY    79  61  53 SE6       30.23F
OWENSBORO      MOSUNNY   80  62  54 S8        30.25F
HOPKINSVILLE   PTSUNNY   78  65  63 S6        30.25F
BOWLING GREEN  SUNNY     81  62  52 VRB5      30.26F
GLASGOW        SUNNY     80  64  56 SW3       30.27F
$$

KYZ024-025-028>034-038-045-046-053-231800-
NORTH CENTRAL KENTUCKY

CITY           SKY/WX    TMP DP  RH WIND       PRES   REMARKS
LOUISVILLE/SDF PTSUNNY   81  59  47 VRB7      30.26F
LOUISVILLE/LOU SUNNY     80  59  48 S7        30.27F
FORT KNOX      SUNNY     80  60  50 S7        30.26F
$$

KYZ035>037-039>044-047>052-055>060-089>105-231800-
NORTHEAST KENTUCKY

CITY           SKY/WX    TMP DP  RH WIND       PRES   REMARKS
LEXINGTON      SUNNY     80  57  45 SE9       30.29F
COVINGTON      MOSUNNY   78  59  51 S7        30.29F
FRANKFORT      SUNNY     80  57  45 VRB5      30.28F
$$

KYZ054-064>069-076>088-106>120-231800-
SOUTHEAST KENTUCKY

CITY           SKY/WX    TMP DP  RH WIND       PRES   REMARKS
JACKSON        SUNNY     78  59  51 VRB3      30.31F
LONDON         SUNNY     80  57  45 SE3       30.30F
SOMERSET       SUNNY     79  59  50 S3        30.30F
MIDDLESBORO    SUNNY     78  62  58 CALM      30.31F
MONTICELLO     CLOUDY   N/A N/A N/A VRB6      30.30F
$$





USA.gov is the U.S. government's official web portal to all federal, state and local government web resources and services.